Year,Month,Day,Hour,Minute,Value (Times are PST for temperature in C)
2013,07,16,00,00,16.50
2013,07,16,00,01,16.40
2013,07,16,00,02,16.40
2013,07,16,00,03,16.40
2013,07,16,00,04,16.40
2013,07,16,00,05,16.40
2013,07,16,00,06,16.40
2013,07,16,00,07,16.40
2013,07,16,00,08,16.40
2013,07,16,00,09,16.40
2013,07,16,00,10,16.40
2013,07,16,00,11,16.40
2013,07,16,00,12,16.50
2013,07,16,00,13,16.50
2013,07,16,00,14,16.60
2013,07,16,00,15,16.70
2013,07,16,00,16,16.90
2013,07,16,00,17,17.10
2013,07,16,00,18,17.50
2013,07,16,00,19,17.90
2013,07,16,00,20,18.20
2013,07,16,00,21,18.50
2013,07,16,00,22,18.80
2013,07,16,00,23,19.10
2013,07,16,00,24,19.50
2013,07,16,00,25,19.80
2013,07,16,00,26,20.00
2013,07,16,00,27,20.20
2013,07,16,00,28,20.30
2013,07,16,00,29,20.40
2013,07,16,00,30,20.50
2013,07,16,00,31,20.60
2013,07,16,00,32,20.70
2013,07,16,00,33,20.90
2013,07,16,00,34,21.00
2013,07,16,00,35,21.10
2013,07,16,00,36,21.10
2013,07,16,00,37,21.10
2013,07,16,00,38,21.10
2013,07,16,00,39,21.00
2013,07,16,00,40,20.80
2013,07,16,00,41,20.60
2013,07,16,00,42,20.40
2013,07,16,00,43,20.10
2013,07,16,00,44,19.80
2013,07,16,00,45,19.60
2013,07,16,00,46,19.40
2013,07,16,00,47,19.20
2013,07,16,00,48,19.10
2013,07,16,00,49,19.00
2013,07,16,00,50,19.00
2013,07,16,00,51,19.10
2013,07,16,00,52,19.20
2013,07,16,00,53,19.30
2013,07,16,00,54,19.50
2013,07,16,00,55,19.70
2013,07,16,00,56,19.80
2013,07,16,00,57,19.90
2013,07,16,00,58,20.00
2013,07,16,00,59,20.10
2013,07,16,01,00,20.20
2013,07,16,01,01,20.30
2013,07,16,01,02,20.40
2013,07,16,01,03,20.50
2013,07,16,01,04,20.60
2013,07,16,01,05,20.70
2013,07,16,01,06,20.80
2013,07,16,01,07,20.90
2013,07,16,01,08,20.90
2013,07,16,01,09,21.00
2013,07,16,01,10,21.00
2013,07,16,01,11,21.10
2013,07,16,01,12,21.10
2013,07,16,01,13,21.10
2013,07,16,01,14,21.10
2013,07,16,01,15,21.20
2013,07,16,01,16,21.20
2013,07,16,01,17,21.20
2013,07,16,01,18,21.30
2013,07,16,01,19,21.30
2013,07,16,01,20,21.20
2013,07,16,01,21,21.10
2013,07,16,01,22,21.10
2013,07,16,01,23,21.00
2013,07,16,01,24,21.00
2013,07,16,01,25,20.90
2013,07,16,01,26,20.80
2013,07,16,01,27,20.80
2013,07,16,01,28,20.70
2013,07,16,01,29,20.70
2013,07,16,01,30,20.60
2013,07,16,01,31,20.50
2013,07,16,01,32,20.40
2013,07,16,01,33,20.30
2013,07,16,01,34,20.20
2013,07,16,01,35,20.10
2013,07,16,01,36,20.00
2013,07,16,01,37,19.90
2013,07,16,01,38,19.80
2013,07,16,01,39,19.70
2013,07,16,01,40,19.60
2013,07,16,01,41,19.60
2013,07,16,01,42,19.50
2013,07,16,01,43,19.40
2013,07,16,01,44,19.40
2013,07,16,01,45,19.40
2013,07,16,01,46,19.30
2013,07,16,01,47,19.20
2013,07,16,01,48,19.10
2013,07,16,01,49,19.00
2013,07,16,01,50,18.90
2013,07,16,01,51,18.80
2013,07,16,01,52,18.70
2013,07,16,01,53,18.60
2013,07,16,01,54,18.50
2013,07,16,01,55,18.50
2013,07,16,01,56,18.40
2013,07,16,01,57,18.40
2013,07,16,01,58,18.40
2013,07,16,01,59,18.40
2013,07,16,02,00,18.40
2013,07,16,02,01,18.40
2013,07,16,02,02,18.40
2013,07,16,02,03,18.40
2013,07,16,02,04,18.50
2013,07,16,02,05,18.50
2013,07,16,02,06,18.60
2013,07,16,02,07,18.70
2013,07,16,02,08,18.80
2013,07,16,02,09,18.90
2013,07,16,02,10,19.00
2013,07,16,02,11,19.20
2013,07,16,02,12,19.30
2013,07,16,02,13,19.40
2013,07,16,02,14,19.50
2013,07,16,02,15,19.60
2013,07,16,02,16,19.70
2013,07,16,02,17,19.70
2013,07,16,02,18,19.80
2013,07,16,02,19,19.90
2013,07,16,02,20,19.90
2013,07,16,02,21,19.90
2013,07,16,02,22,19.90
2013,07,16,02,23,19.90
2013,07,16,02,24,19.90
2013,07,16,02,25,19.90
2013,07,16,02,26,19.90
2013,07,16,02,27,19.90
2013,07,16,02,28,19.90
2013,07,16,02,29,19.90
2013,07,16,02,30,19.90
2013,07,16,02,31,19.90
2013,07,16,02,32,19.90
2013,07,16,02,33,19.90
2013,07,16,02,34,19.90
2013,07,16,02,35,19.90
2013,07,16,02,36,19.90
2013,07,16,02,37,19.80
2013,07,16,02,38,19.80
2013,07,16,02,39,19.80
2013,07,16,02,40,19.80
2013,07,16,02,41,19.80
2013,07,16,02,42,19.80
2013,07,16,02,43,19.80
2013,07,16,02,44,19.80
2013,07,16,02,45,19.90
2013,07,16,02,46,19.90
2013,07,16,02,47,19.90
2013,07,16,02,48,20.00
2013,07,16,02,49,20.00
2013,07,16,02,50,20.00
2013,07,16,02,51,20.10
2013,07,16,02,52,20.10
2013,07,16,02,53,20.10
2013,07,16,02,54,20.20
2013,07,16,02,55,20.20
2013,07,16,02,56,20.20
2013,07,16,02,57,20.20
2013,07,16,02,58,20.20
2013,07,16,02,59,20.20
2013,07,16,03,00,20.10
2013,07,16,03,01,20.10
2013,07,16,03,02,20.10
2013,07,16,03,03,20.10
2013,07,16,03,04,20.10
2013,07,16,03,05,20.10
2013,07,16,03,06,20.10
2013,07,16,03,07,20.10
2013,07,16,03,08,20.10
2013,07,16,03,09,20.10
2013,07,16,03,10,20.10
2013,07,16,03,11,20.10
2013,07,16,03,12,20.10
2013,07,16,03,13,20.10
2013,07,16,03,14,20.10
2013,07,16,03,15,20.10
2013,07,16,03,16,20.10
2013,07,16,03,17,20.20
2013,07,16,03,18,20.20
2013,07,16,03,19,20.20
2013,07,16,03,20,20.20
2013,07,16,03,21,20.20
2013,07,16,03,22,20.20
2013,07,16,03,23,20.20
2013,07,16,03,24,20.20
2013,07,16,03,25,20.30
2013,07,16,03,26,20.30
2013,07,16,03,27,20.30
2013,07,16,03,28,20.30
2013,07,16,03,29,20.30
2013,07,16,03,30,20.30
2013,07,16,03,31,20.30
2013,07,16,03,32,20.40
2013,07,16,03,33,20.40
2013,07,16,03,34,20.40
2013,07,16,03,35,20.40
2013,07,16,03,36,20.50
2013,07,16,03,37,20.50
2013,07,16,03,38,20.60
2013,07,16,03,39,20.70
2013,07,16,03,40,20.70
2013,07,16,03,41,20.70
2013,07,16,03,42,20.70
2013,07,16,03,43,20.70
2013,07,16,03,44,20.70
2013,07,16,03,45,20.70
2013,07,16,03,46,20.70
2013,07,16,03,47,20.70
2013,07,16,03,48,20.70
2013,07,16,03,49,20.70
2013,07,16,03,50,20.60
2013,07,16,03,51,20.60
2013,07,16,03,52,20.60
2013,07,16,03,53,20.60
2013,07,16,03,54,20.60
2013,07,16,03,55,20.60
2013,07,16,03,56,20.60
2013,07,16,03,57,20.60
2013,07,16,03,58,20.70
2013,07,16,03,59,20.70
2013,07,16,04,00,20.60
2013,07,16,04,01,20.60
2013,07,16,04,02,20.60
2013,07,16,04,03,20.50
2013,07,16,04,04,20.50
2013,07,16,04,05,20.50
2013,07,16,04,06,20.40
2013,07,16,04,07,20.40
2013,07,16,04,08,20.40
2013,07,16,04,09,20.40
2013,07,16,04,10,20.40
2013,07,16,04,11,20.40
2013,07,16,04,12,20.40
2013,07,16,04,13,20.40
2013,07,16,04,14,20.40
2013,07,16,04,15,20.40
2013,07,16,04,16,20.40
2013,07,16,04,17,20.40
2013,07,16,04,18,20.40
2013,07,16,04,19,20.40
2013,07,16,04,20,20.30
2013,07,16,04,21,20.30
2013,07,16,04,22,20.30
2013,07,16,04,23,20.30
2013,07,16,04,24,20.30
2013,07,16,04,25,20.30
2013,07,16,04,26,20.20
2013,07,16,04,27,20.30
2013,07,16,04,28,20.30
2013,07,16,04,29,20.20
2013,07,16,04,30,20.20
2013,07,16,04,31,20.20
2013,07,16,04,32,20.20
2013,07,16,04,33,20.20
2013,07,16,04,34,20.20
2013,07,16,04,35,20.20
2013,07,16,04,36,20.20
2013,07,16,04,37,20.20
2013,07,16,04,38,20.20
2013,07,16,04,39,20.20
2013,07,16,04,40,20.10
2013,07,16,04,41,20.10
2013,07,16,04,42,20.10
2013,07,16,04,43,20.10
2013,07,16,04,44,20.10
2013,07,16,04,45,20.10
2013,07,16,04,46,20.10
2013,07,16,04,47,20.10
2013,07,16,04,48,20.10
2013,07,16,04,49,20.00
2013,07,16,04,50,20.00
2013,07,16,04,51,20.00
2013,07,16,04,52,20.00
2013,07,16,04,53,20.10
2013,07,16,04,54,20.10
2013,07,16,04,55,20.10
2013,07,16,04,56,20.10
2013,07,16,04,57,20.10
2013,07,16,04,58,20.00
2013,07,16,04,59,20.00
2013,07,16,05,00,20.00
2013,07,16,05,01,20.00
2013,07,16,05,02,20.00
2013,07,16,05,03,20.00
2013,07,16,05,04,20.00
2013,07,16,05,05,20.00
2013,07,16,05,06,20.00
2013,07,16,05,07,19.90
2013,07,16,05,08,19.90
2013,07,16,05,09,19.90
2013,07,16,05,10,19.90
2013,07,16,05,11,19.90
2013,07,16,05,12,19.90
2013,07,16,05,13,19.90
2013,07,16,05,14,19.90
2013,07,16,05,15,19.80
2013,07,16,05,16,19.80
2013,07,16,05,17,19.80
2013,07,16,05,18,19.80
2013,07,16,05,19,19.80
2013,07,16,05,20,19.80
2013,07,16,05,21,19.70
2013,07,16,05,22,19.70
2013,07,16,05,23,19.70
2013,07,16,05,24,19.70
2013,07,16,05,25,19.70
2013,07,16,05,26,19.70
2013,07,16,05,27,19.60
2013,07,16,05,28,19.60
2013,07,16,05,29,19.60
2013,07,16,05,30,19.60
2013,07,16,05,31,19.50
2013,07,16,05,32,19.50
2013,07,16,05,33,19.40
2013,07,16,05,34,19.40
2013,07,16,05,35,19.40
2013,07,16,05,36,19.40
2013,07,16,05,37,19.40
2013,07,16,05,38,19.40
2013,07,16,05,39,19.40
2013,07,16,05,40,19.40
2013,07,16,05,41,19.40
2013,07,16,05,42,19.30
2013,07,16,05,43,19.20
2013,07,16,05,44,19.20
2013,07,16,05,45,19.20
2013,07,16,05,46,19.20
2013,07,16,05,47,19.20
2013,07,16,05,48,19.20
2013,07,16,05,49,19.10
2013,07,16,05,50,19.10
2013,07,16,05,51,19.10
2013,07,16,05,52,19.10
2013,07,16,05,53,19.10
2013,07,16,05,54,19.10
2013,07,16,05,55,19.10
2013,07,16,05,56,19.10
2013,07,16,05,57,19.10
2013,07,16,05,58,19.10
2013,07,16,05,59,19.20
2013,07,16,06,00,19.20
2013,07,16,06,01,19.20
2013,07,16,06,02,19.20
2013,07,16,06,03,19.20
2013,07,16,06,04,19.20
2013,07,16,06,05,19.20
2013,07,16,06,06,19.20
2013,07,16,06,07,19.20
2013,07,16,06,08,19.20
2013,07,16,06,09,19.20
2013,07,16,06,10,19.20
2013,07,16,06,11,19.20
2013,07,16,06,12,19.20
2013,07,16,06,13,19.20
2013,07,16,06,14,19.30
2013,07,16,06,15,19.30
2013,07,16,06,16,19.30
2013,07,16,06,17,19.30
2013,07,16,06,18,19.30
2013,07,16,06,19,19.30
2013,07,16,06,20,19.30
2013,07,16,06,21,19.30
2013,07,16,06,22,19.30
2013,07,16,06,23,19.30
2013,07,16,06,24,19.30
2013,07,16,06,25,19.30
2013,07,16,06,26,19.40
2013,07,16,06,27,19.40
2013,07,16,06,28,19.40
2013,07,16,06,29,19.40
2013,07,16,06,30,19.40
2013,07,16,06,31,19.50
2013,07,16,06,32,19.50
2013,07,16,06,33,19.50
2013,07,16,06,34,19.50
2013,07,16,06,35,19.50
2013,07,16,06,36,19.50
2013,07,16,06,37,19.50
2013,07,16,06,38,19.50
2013,07,16,06,39,19.60
2013,07,16,06,40,19.60
2013,07,16,06,41,19.60
2013,07,16,06,42,19.60
2013,07,16,06,43,19.60
2013,07,16,06,44,19.60
2013,07,16,06,45,19.60
2013,07,16,06,46,19.60
2013,07,16,06,47,19.60
2013,07,16,06,48,19.60
2013,07,16,06,49,19.70
2013,07,16,06,50,19.70
2013,07,16,06,51,19.70
2013,07,16,06,52,19.70
2013,07,16,06,53,19.70
2013,07,16,06,54,19.70
2013,07,16,06,55,19.70
2013,07,16,06,56,19.70
2013,07,16,06,57,19.70
2013,07,16,06,58,19.70
2013,07,16,06,59,19.70
2013,07,16,07,00,19.70
2013,07,16,07,01,19.70
2013,07,16,07,02,19.80
2013,07,16,07,03,19.80
2013,07,16,07,04,19.80
2013,07,16,07,05,19.80
2013,07,16,07,06,19.80
2013,07,16,07,07,19.80
2013,07,16,07,08,19.90
2013,07,16,07,09,19.90
2013,07,16,07,10,19.90
2013,07,16,07,11,19.90
2013,07,16,07,12,19.90
2013,07,16,07,13,20.00
2013,07,16,07,14,20.00
2013,07,16,07,15,20.00
2013,07,16,07,16,20.00
2013,07,16,07,17,20.10
2013,07,16,07,18,20.10
2013,07,16,07,19,20.10
2013,07,16,07,20,20.10
2013,07,16,07,21,20.20
2013,07,16,07,22,20.20
2013,07,16,07,23,20.20
2013,07,16,07,24,20.20
2013,07,16,07,25,20.20
2013,07,16,07,26,20.30
2013,07,16,07,27,20.30
2013,07,16,07,28,20.30
2013,07,16,07,29,20.40
2013,07,16,07,30,20.40
2013,07,16,07,31,20.40
2013,07,16,07,32,20.50
2013,07,16,07,33,20.60
2013,07,16,07,34,20.60
2013,07,16,07,35,20.60
2013,07,16,07,36,20.70
2013,07,16,07,37,20.70
2013,07,16,07,38,20.70
2013,07,16,07,39,20.80
2013,07,16,07,40,20.80
2013,07,16,07,41,20.80
2013,07,16,07,42,20.80
2013,07,16,07,43,20.80
2013,07,16,07,44,20.80
2013,07,16,07,45,20.80
2013,07,16,07,46,20.80
2013,07,16,07,47,20.80
2013,07,16,07,48,20.80
2013,07,16,07,49,20.90
2013,07,16,07,50,20.90
2013,07,16,07,51,20.90
2013,07,16,07,52,20.90
2013,07,16,07,53,21.00
2013,07,16,07,54,21.00
2013,07,16,07,55,21.00
2013,07,16,07,56,21.00
2013,07,16,07,57,21.00
2013,07,16,07,58,21.00
2013,07,16,07,59,21.10
2013,07,16,08,00,21.10
2013,07,16,08,01,21.10
2013,07,16,08,02,21.10
2013,07,16,08,03,21.10
2013,07,16,08,04,21.10
2013,07,16,08,05,21.10
2013,07,16,08,06,21.20
2013,07,16,08,07,21.20
2013,07,16,08,08,21.20
2013,07,16,08,09,21.30
2013,07,16,08,10,21.30
2013,07,16,08,11,21.30
2013,07,16,08,12,21.30
2013,07,16,08,13,21.30
2013,07,16,08,14,21.40
2013,07,16,08,15,21.40
2013,07,16,08,16,21.40
2013,07,16,08,17,21.40
2013,07,16,08,18,21.40
2013,07,16,08,19,21.40
2013,07,16,08,20,21.50
2013,07,16,08,21,21.50
2013,07,16,08,22,21.50
2013,07,16,08,23,21.60
2013,07,16,08,24,21.60
2013,07,16,08,25,21.60
2013,07,16,08,26,21.60
2013,07,16,08,27,21.70
2013,07,16,08,28,21.70
2013,07,16,08,29,21.70
2013,07,16,08,30,21.70
2013,07,16,08,31,21.80
2013,07,16,08,32,21.80
2013,07,16,08,33,21.80
2013,07,16,08,34,21.80
2013,07,16,08,35,21.80
2013,07,16,08,36,21.90
2013,07,16,08,37,21.90
2013,07,16,08,38,22.00
2013,07,16,08,39,22.00
2013,07,16,08,40,22.00
2013,07,16,08,41,22.10
2013,07,16,08,42,22.10
2013,07,16,08,43,22.10
2013,07,16,08,44,22.20
2013,07,16,08,45,22.20
2013,07,16,08,46,22.20
2013,07,16,08,47,22.20
2013,07,16,08,48,22.30
2013,07,16,08,49,22.30
2013,07,16,08,50,22.30
2013,07,16,08,51,22.30
2013,07,16,08,52,22.30
2013,07,16,08,53,22.30
2013,07,16,08,54,22.40
2013,07,16,08,55,22.40
2013,07,16,08,56,22.40
2013,07,16,08,57,22.40
2013,07,16,08,58,22.40
2013,07,16,08,59,22.40
2013,07,16,09,00,22.50
2013,07,16,09,01,22.50
2013,07,16,09,02,22.60
2013,07,16,09,03,22.70
2013,07,16,09,04,22.70
2013,07,16,09,05,22.70
2013,07,16,09,06,22.80
2013,07,16,09,07,22.70
2013,07,16,09,08,22.80
2013,07,16,09,09,22.80
2013,07,16,09,10,22.80
2013,07,16,09,11,22.80
2013,07,16,09,12,22.90
2013,07,16,09,13,23.00
2013,07,16,09,14,23.00
2013,07,16,09,15,23.10
2013,07,16,09,16,23.10
2013,07,16,09,17,23.10
2013,07,16,09,18,23.10
2013,07,16,09,19,23.20
2013,07,16,09,20,23.20
2013,07,16,09,21,23.30
2013,07,16,09,22,23.30
2013,07,16,09,23,23.30
2013,07,16,09,24,23.30
2013,07,16,09,25,23.40
2013,07,16,09,26,23.40
2013,07,16,09,27,23.40
2013,07,16,09,28,23.40
2013,07,16,09,29,23.50
2013,07,16,09,30,23.50
2013,07,16,09,31,23.60
2013,07,16,09,32,23.60
2013,07,16,09,33,23.60
2013,07,16,09,34,23.70
2013,07,16,09,35,23.70
2013,07,16,09,36,23.80
2013,07,16,09,37,23.80
2013,07,16,09,38,23.90
2013,07,16,09,39,24.00
2013,07,16,09,40,24.10
2013,07,16,09,41,24.10
2013,07,16,09,42,24.20
2013,07,16,09,43,24.20
2013,07,16,09,44,24.20
2013,07,16,09,45,24.20
2013,07,16,09,46,24.20
2013,07,16,09,47,24.20
2013,07,16,09,48,24.20
2013,07,16,09,49,24.30
2013,07,16,09,50,24.30
2013,07,16,09,51,24.30
2013,07,16,09,52,24.40
2013,07,16,09,53,24.40
2013,07,16,09,54,24.50
2013,07,16,09,55,24.70
2013,07,16,09,56,24.80
2013,07,16,09,57,24.90
2013,07,16,09,58,25.10
2013,07,16,09,59,25.10
2013,07,16,10,00,25.20
2013,07,16,10,01,25.20
2013,07,16,10,02,25.20
2013,07,16,10,03,25.30
2013,07,16,10,04,25.30
2013,07,16,10,05,25.30
2013,07,16,10,06,25.40
2013,07,16,10,07,25.40
2013,07,16,10,08,25.50
2013,07,16,10,09,25.60
2013,07,16,10,10,25.60
2013,07,16,10,11,25.60
2013,07,16,10,12,25.70
2013,07,16,10,13,25.70
2013,07,16,10,14,25.70
2013,07,16,10,15,25.70
2013,07,16,10,16,25.70
2013,07,16,10,17,25.70
2013,07,16,10,18,25.80
2013,07,16,10,19,25.80
2013,07,16,10,20,25.90
2013,07,16,10,21,25.90
2013,07,16,10,22,26.00
2013,07,16,10,23,25.90
2013,07,16,10,24,25.90
2013,07,16,10,25,25.90
2013,07,16,10,26,26.00
2013,07,16,10,27,26.00
2013,07,16,10,28,25.90
2013,07,16,10,29,25.80
2013,07,16,10,30,25.80
2013,07,16,10,31,25.80
2013,07,16,10,32,25.80
2013,07,16,10,33,25.90
2013,07,16,10,34,25.90
2013,07,16,10,35,26.00
2013,07,16,10,36,26.10
2013,07,16,10,37,26.10
2013,07,16,10,38,26.20
2013,07,16,10,39,26.30
2013,07,16,10,40,26.30
2013,07,16,10,41,26.40
2013,07,16,10,42,26.40
2013,07,16,10,43,26.50
2013,07,16,10,44,26.60
2013,07,16,10,45,26.60
2013,07,16,10,46,26.60
2013,07,16,10,47,26.50
2013,07,16,10,48,26.50
2013,07,16,10,49,26.50
2013,07,16,10,50,26.60
2013,07,16,10,51,26.60
2013,07,16,10,52,26.60
2013,07,16,10,53,26.60
2013,07,16,10,54,26.70
2013,07,16,10,55,26.70
2013,07,16,10,56,26.80
2013,07,16,10,57,26.80
2013,07,16,10,58,26.80
2013,07,16,10,59,26.80
2013,07,16,11,00,26.80
2013,07,16,11,01,26.80
2013,07,16,11,02,26.90
2013,07,16,11,03,27.00
2013,07,16,11,04,27.00
2013,07,16,11,05,27.10
2013,07,16,11,06,27.10
2013,07,16,11,07,27.10
2013,07,16,11,08,27.10
2013,07,16,11,09,27.10
2013,07,16,11,10,27.10
2013,07,16,11,11,27.00
2013,07,16,11,12,26.80
2013,07,16,11,13,26.70
2013,07,16,11,14,26.70
2013,07,16,11,15,26.70
2013,07,16,11,16,26.70
2013,07,16,11,17,26.90
2013,07,16,11,18,27.00
2013,07,16,11,19,27.20
2013,07,16,11,20,27.40
2013,07,16,11,21,27.50
2013,07,16,11,22,27.60
2013,07,16,11,23,27.70
2013,07,16,11,24,27.70
2013,07,16,11,25,27.60
2013,07,16,11,26,27.60
2013,07,16,11,27,27.60
2013,07,16,11,28,27.70
2013,07,16,11,29,27.80
2013,07,16,11,30,27.80
2013,07,16,11,31,28.00
2013,07,16,11,32,28.10
2013,07,16,11,33,28.30
2013,07,16,11,34,28.50
2013,07,16,11,35,28.50
2013,07,16,11,36,28.40
2013,07,16,11,37,28.20
2013,07,16,11,38,28.00
2013,07,16,11,39,27.80
2013,07,16,11,40,27.70
2013,07,16,11,41,27.70
2013,07,16,11,42,27.70
2013,07,16,11,43,27.70
2013,07,16,11,44,27.80
2013,07,16,11,45,27.90
2013,07,16,11,46,28.00
2013,07,16,11,47,28.00
2013,07,16,11,48,28.00
2013,07,16,11,49,28.00
2013,07,16,11,50,27.90
2013,07,16,11,51,27.90
2013,07,16,11,52,27.90
2013,07,16,11,53,28.00
2013,07,16,11,54,28.10
2013,07,16,11,55,28.20
2013,07,16,11,56,28.20
2013,07,16,11,57,28.30
2013,07,16,11,58,28.30
2013,07,16,11,59,28.40
2013,07,16,12,00,28.50
2013,07,16,12,01,28.60
2013,07,16,12,02,28.50
2013,07,16,12,03,28.40
2013,07,16,12,04,28.40
2013,07,16,12,05,28.40
2013,07,16,12,06,28.40
2013,07,16,12,07,28.30
2013,07,16,12,08,28.30
2013,07,16,12,09,28.20
2013,07,16,12,10,28.20
2013,07,16,12,11,28.20
2013,07,16,12,12,28.30
2013,07,16,12,13,28.30
2013,07,16,12,14,28.40
2013,07,16,12,15,28.40
2013,07,16,12,16,28.50
2013,07,16,12,17,28.60
2013,07,16,12,18,28.50
2013,07,16,12,19,28.50
2013,07,16,12,20,28.40
2013,07,16,12,21,28.40
2013,07,16,12,22,28.30
2013,07,16,12,23,28.20
2013,07,16,12,24,28.20
2013,07,16,12,25,28.30
2013,07,16,12,26,28.40
2013,07,16,12,27,28.40
2013,07,16,12,28,28.40
2013,07,16,12,29,28.40
2013,07,16,12,30,28.30
2013,07,16,12,31,28.20
2013,07,16,12,32,28.20
2013,07,16,12,33,28.20
2013,07,16,12,34,28.20
2013,07,16,12,35,28.20
2013,07,16,12,36,28.20
2013,07,16,12,37,28.20
2013,07,16,12,38,28.30
2013,07,16,12,39,28.40
2013,07,16,12,40,28.40
2013,07,16,12,41,28.40
2013,07,16,12,42,28.40
2013,07,16,12,43,28.40
2013,07,16,12,44,28.40
2013,07,16,12,45,28.40
2013,07,16,12,46,28.50
2013,07,16,12,47,28.40
2013,07,16,12,48,28.40
2013,07,16,12,49,28.50
2013,07,16,12,50,28.60
2013,07,16,12,51,28.70
2013,07,16,12,52,28.70
2013,07,16,12,53,28.80
2013,07,16,12,54,28.80
2013,07,16,12,55,28.80
2013,07,16,12,56,28.70
2013,07,16,12,57,28.80
2013,07,16,12,58,28.90
2013,07,16,12,59,28.90
2013,07,16,13,00,29.00
2013,07,16,13,01,29.00
2013,07,16,13,02,29.00
2013,07,16,13,03,29.10
2013,07,16,13,04,29.10
2013,07,16,13,05,29.10
2013,07,16,13,06,28.90
2013,07,16,13,07,28.80
2013,07,16,13,08,28.70
2013,07,16,13,09,28.70
2013,07,16,13,10,28.70
2013,07,16,13,11,28.70
2013,07,16,13,12,28.70
2013,07,16,13,13,28.70
2013,07,16,13,14,28.90
2013,07,16,13,15,28.90
2013,07,16,13,16,28.90
2013,07,16,13,17,28.80
2013,07,16,13,18,28.90
2013,07,16,13,19,28.90
2013,07,16,13,20,29.00
2013,07,16,13,21,29.00
2013,07,16,13,22,28.90
2013,07,16,13,23,28.90
2013,07,16,13,24,28.80
2013,07,16,13,25,28.70
2013,07,16,13,26,28.60
2013,07,16,13,27,28.60
2013,07,16,13,28,28.60
2013,07,16,13,29,28.60
2013,07,16,13,30,28.70
2013,07,16,13,31,28.70
2013,07,16,13,32,28.70
2013,07,16,13,33,28.70
2013,07,16,13,34,28.70
2013,07,16,13,35,28.70
2013,07,16,13,36,28.80
2013,07,16,13,37,29.00
2013,07,16,13,38,29.10
2013,07,16,13,39,29.20
2013,07,16,13,40,29.20
2013,07,16,13,41,29.30
2013,07,16,13,42,29.30
2013,07,16,13,43,29.20
2013,07,16,13,44,29.10
2013,07,16,13,45,28.90
2013,07,16,13,46,28.80
2013,07,16,13,47,28.80
2013,07,16,13,48,28.70
2013,07,16,13,49,28.70
2013,07,16,13,50,28.70
2013,07,16,13,51,28.70
2013,07,16,13,52,28.70
2013,07,16,13,53,28.80
2013,07,16,13,54,28.80
2013,07,16,13,55,28.80
2013,07,16,13,56,28.90
2013,07,16,13,57,29.10
2013,07,16,13,58,29.20
2013,07,16,13,59,29.30
2013,07,16,14,00,29.50
2013,07,16,14,01,29.60
2013,07,16,14,02,29.60
2013,07,16,14,03,29.60
2013,07,16,14,04,29.60
2013,07,16,14,05,29.50
2013,07,16,14,06,29.40
2013,07,16,14,07,29.30
2013,07,16,14,08,29.20
2013,07,16,14,09,29.10
2013,07,16,14,10,29.00
2013,07,16,14,11,29.00
2013,07,16,14,12,28.90
2013,07,16,14,13,28.90
2013,07,16,14,14,29.00
2013,07,16,14,15,28.90
2013,07,16,14,16,29.00
2013,07,16,14,17,29.20
2013,07,16,14,18,29.20
2013,07,16,14,19,29.30
2013,07,16,14,20,29.30
2013,07,16,14,21,29.40
2013,07,16,14,22,29.40
2013,07,16,14,23,29.30
2013,07,16,14,24,29.20
2013,07,16,14,25,29.10
2013,07,16,14,26,29.10
2013,07,16,14,27,29.10
2013,07,16,14,28,29.10
2013,07,16,14,29,29.10
2013,07,16,14,30,29.10
2013,07,16,14,31,29.10
2013,07,16,14,32,29.10
2013,07,16,14,33,29.10
2013,07,16,14,34,29.00
2013,07,16,14,35,29.00
2013,07,16,14,36,29.10
2013,07,16,14,37,29.10
2013,07,16,14,38,29.20
2013,07,16,14,39,29.30
2013,07,16,14,40,29.30
2013,07,16,14,41,29.30
2013,07,16,14,42,29.40
2013,07,16,14,43,29.40
2013,07,16,14,44,29.30
2013,07,16,14,45,29.30
2013,07,16,14,46,29.10
2013,07,16,14,47,29.10
2013,07,16,14,48,29.00
2013,07,16,14,49,28.80
2013,07,16,14,50,28.70
2013,07,16,14,51,28.60
2013,07,16,14,52,28.60
2013,07,16,14,53,28.60
2013,07,16,14,54,28.50
2013,07,16,14,55,28.50
2013,07,16,14,56,28.40
2013,07,16,14,57,28.30
2013,07,16,14,58,28.30
2013,07,16,14,59,28.30
2013,07,16,15,00,28.20
2013,07,16,15,01,28.20
2013,07,16,15,02,28.10
2013,07,16,15,03,28.10
2013,07,16,15,04,28.00
2013,07,16,15,05,27.90
2013,07,16,15,06,27.90
2013,07,16,15,07,27.80
2013,07,16,15,08,27.80
2013,07,16,15,09,27.80
2013,07,16,15,10,27.80
2013,07,16,15,11,27.80
2013,07,16,15,12,27.90
2013,07,16,15,13,27.90
2013,07,16,15,14,27.90
2013,07,16,15,15,27.90
2013,07,16,15,16,28.00
2013,07,16,15,17,28.00
2013,07,16,15,18,28.00
2013,07,16,15,19,28.00
2013,07,16,15,20,28.00
2013,07,16,15,21,28.00
2013,07,16,15,22,28.00
2013,07,16,15,23,28.10
2013,07,16,15,24,28.10
2013,07,16,15,25,28.10
2013,07,16,15,26,28.20
2013,07,16,15,27,28.20
2013,07,16,15,28,28.30
2013,07,16,15,29,28.30
2013,07,16,15,30,28.40
2013,07,16,15,31,28.40
2013,07,16,15,32,28.50
2013,07,16,15,33,28.60
2013,07,16,15,34,28.60
2013,07,16,15,35,28.70
2013,07,16,15,36,28.70
2013,07,16,15,37,28.70
2013,07,16,15,38,28.70
2013,07,16,15,39,28.70
2013,07,16,15,40,28.60
2013,07,16,15,41,28.60
2013,07,16,15,42,28.60
2013,07,16,15,43,28.60
2013,07,16,15,44,28.60
2013,07,16,15,45,28.60
2013,07,16,15,46,28.70
2013,07,16,15,47,28.70
2013,07,16,15,48,28.70
2013,07,16,15,49,28.80
2013,07,16,15,50,28.80
2013,07,16,15,51,28.80
2013,07,16,15,52,28.80
2013,07,16,15,53,28.80
2013,07,16,15,54,28.80
2013,07,16,15,55,28.90
2013,07,16,15,56,28.90
2013,07,16,15,57,29.00
2013,07,16,15,58,29.10
2013,07,16,15,59,29.20
2013,07,16,16,00,29.40
2013,07,16,16,01,29.50
2013,07,16,16,02,29.60
2013,07,16,16,03,29.70
2013,07,16,16,04,29.70
2013,07,16,16,05,29.60
2013,07,16,16,06,29.60
2013,07,16,16,07,29.50
2013,07,16,16,08,29.50
2013,07,16,16,09,29.40
2013,07,16,16,10,29.40
2013,07,16,16,11,29.30
2013,07,16,16,12,29.20
2013,07,16,16,13,29.20
2013,07,16,16,14,29.10
2013,07,16,16,15,29.10
2013,07,16,16,16,29.10
2013,07,16,16,17,29.10
2013,07,16,16,18,29.20
2013,07,16,16,19,29.20
2013,07,16,16,20,29.20
2013,07,16,16,21,29.20
2013,07,16,16,22,29.10
2013,07,16,16,23,29.10
2013,07,16,16,24,29.10
2013,07,16,16,25,29.10
2013,07,16,16,26,29.10
2013,07,16,16,27,29.10
2013,07,16,16,28,29.10
2013,07,16,16,29,29.10
2013,07,16,16,30,29.10
2013,07,16,16,31,29.10
2013,07,16,16,32,29.10
2013,07,16,16,33,29.10
2013,07,16,16,34,29.20
2013,07,16,16,35,29.20
2013,07,16,16,36,29.20
2013,07,16,16,37,29.20
2013,07,16,16,38,29.20
2013,07,16,16,39,29.20
2013,07,16,16,40,29.20
2013,07,16,16,41,29.20
2013,07,16,16,42,29.20
2013,07,16,16,43,29.20
2013,07,16,16,44,29.20
2013,07,16,16,45,29.20
2013,07,16,16,46,29.20
2013,07,16,16,47,29.20
2013,07,16,16,48,29.10
2013,07,16,16,49,29.10
2013,07,16,16,50,29.10
2013,07,16,16,51,29.10
2013,07,16,16,52,29.00
2013,07,16,16,53,29.00
2013,07,16,16,54,29.00
2013,07,16,16,55,28.90
2013,07,16,16,56,28.90
2013,07,16,16,57,28.90
2013,07,16,16,58,28.90
2013,07,16,16,59,28.90
2013,07,16,17,00,28.90
2013,07,16,17,01,28.80
2013,07,16,17,02,28.80
2013,07,16,17,03,28.90
2013,07,16,17,04,28.90
2013,07,16,17,05,28.90
2013,07,16,17,06,28.90
2013,07,16,17,07,28.90
2013,07,16,17,08,28.90
2013,07,16,17,09,28.90
2013,07,16,17,10,28.90
2013,07,16,17,11,28.80
2013,07,16,17,12,28.80
2013,07,16,17,13,28.80
2013,07,16,17,14,28.70
2013,07,16,17,15,28.70
2013,07,16,17,16,28.70
2013,07,16,17,17,28.70
2013,07,16,17,18,28.70
2013,07,16,17,19,28.70